Location: Putah Creek Observatory
(38.7021°N, 122.3865°W)
Time: 08:03:40
(UTC-07:00)

CZ-2C R/B - Pass Details

Date: 27 May 2018
Orbit: 705 x 907 km, 98.2° (Epoch: 19 June)

Event Time Altitude Azimuth Distance (km) Brightness Sun altitude
Exits shadow 23:13:05 58° 122° (ESE) 975 3.2 -24.2°
Maximum altitude 23:13:56 68° 74° (ENE) 912 3.2 -24.3°
Drops below altitude 10° 23:19:32 10° 353° (N) 2,535 6.6 -24.8°
Sets 23:22:00 0° 351° (N) 3,499 7.6 -25.0°
